Time,TemperatureF,DewpointF,PressureIn,WindDirection,WindDirectionDegrees,WindSpeedMPH,WindSpeedGustMPH,Humidity,HourlyPrecipIn,Conditions,Clouds,dailyrainin,SoftwareType,DateUTC
2013-01-22 00:00:00,2.6,-5.5,30.32,NNW,341,1.0,6.0,68,0.00,,---,0.00,VWS V14.01,2013-01-22 06:00:00,
2013-01-22 00:05:00,2.6,-5.5,30.32,NW,306,2.0,6.0,68,0.00,,---,0.00,VWS V14.01,2013-01-22 06:05:00,
2013-01-22 00:10:00,2.6,-5.5,30.32,NNW,338,4.0,5.0,68,0.00,,---,0.00,VWS V14.01,2013-01-22 06:10:00,
2013-01-22 00:15:00,2.6,-5.5,30.31,NW,319,1.0,5.0,68,0.00,,---,0.00,VWS V14.01,2013-01-22 06:15:00,
2013-01-22 00:20:00,2.5,-5.6,30.31,NNW,345,1.0,5.0,68,0.00,,---,0.00,VWS V14.01,2013-01-22 06:20:00,
2013-01-22 00:25:00,2.4,-5.7,30.31,NNW,329,3.0,3.0,68,0.00,,---,0.00,VWS V14.01,2013-01-22 06:25:00,
2013-01-22 00:30:00,2.4,-5.7,30.31,West,266,0.0,6.0,68,0.00,,---,0.00,VWS V14.01,2013-01-22 06:30:00,
2013-01-22 00:35:00,2.3,-5.5,30.31,NW,325,2.0,6.0,69,0.00,,---,0.00,VWS V14.01,2013-01-22 06:35:00,
2013-01-22 00:40:00,2.3,-5.5,30.31,NW,311,8.0,8.0,69,0.00,,---,0.00,VWS V14.01,2013-01-22 06:40:00,
2013-01-22 00:45:00,2.3,-5.5,30.31,NNW,331,4.0,8.0,69,0.00,,---,0.00,VWS V14.01,2013-01-22 06:45:00,
2013-01-22 00:50:00,2.3,-5.5,30.32,WNW,299,3.0,8.0,69,0.00,,---,0.00,VWS V14.01,2013-01-22 06:50:00,
2013-01-22 00:55:00,2.2,-5.6,30.31,NNW,336,4.0,5.0,69,0.00,,---,0.00,VWS V14.01,2013-01-22 06:55:00,
2013-01-22 01:00:00,2.2,-5.6,30.31,NW,325,4.0,6.0,69,0.00,,---,0.00,VWS V14.01,2013-01-22 07:00:00,
2013-01-22 01:05:00,2.2,-5.6,30.32,NW,319,3.0,6.0,69,0.00,,---,0.00,VWS V14.01,2013-01-22 07:05:00,
2013-01-22 01:10:00,2.2,-5.6,30.32,NW,325,4.0,4.0,69,0.00,,---,0.00,VWS V14.01,2013-01-22 07:10:00,
2013-01-22 01:15:00,2.1,-5.7,30.32,NNW,338,3.0,9.0,69,0.00,,---,0.00,VWS V14.01,2013-01-22 07:15:00,
2013-01-22 01:20:00,2.0,-5.8,30.32,WNW,295,3.0,9.0,69,0.00,,---,0.00,VWS V14.01,2013-01-22 07:20:00,
2013-01-22 01:25:00,2.0,-5.8,30.32,NW,319,5.0,8.0,69,0.00,,---,0.00,VWS V14.01,2013-01-22 07:25:00,
2013-01-22 01:30:00,2.0,-5.8,30.32,NW,325,5.0,8.0,69,0.00,,---,0.00,VWS V14.01,2013-01-22 07:30:00,
2013-01-22 01:35:00,1.9,-5.9,30.32,NNW,329,5.0,8.0,69,0.00,,---,0.00,VWS V14.01,2013-01-22 07:35:00,
2013-01-22 01:40:00,1.9,-5.6,30.32,NW,319,1.0,6.0,70,0.00,,---,0.00,VWS V14.01,2013-01-22 07:40:00,
2013-01-22 01:45:00,1.8,-5.7,30.33,NW,312,3.0,8.0,70,0.00,,---,0.00,VWS V14.01,2013-01-22 07:45:00,
2013-01-22 01:50:00,1.8,-5.7,30.33,NNW,332,1.0,8.0,70,0.00,,---,0.00,VWS V14.01,2013-01-22 07:50:00,
2013-01-22 01:55:00,1.7,-5.5,30.33,NNW,344,3.0,4.0,71,0.00,,---,0.00,VWS V14.01,2013-01-22 07:55:00,
2013-01-22 02:00:00,1.7,-5.5,30.33,NW,326,0.0,5.0,71,0.00,,---,0.00,VWS V14.01,2013-01-22 08:00:00,
2013-01-22 02:05:00,1.6,-5.6,30.33,NW,317,5.0,6.0,71,0.00,,---,0.00,VWS V14.01,2013-01-22 08:05:00,
2013-01-22 02:10:00,1.5,-5.7,30.33,NNW,345,2.0,5.0,71,0.00,,---,0.00,VWS V14.01,2013-01-22 08:10:00,
2013-01-22 02:15:00,1.4,-5.8,30.33,NW,326,2.0,6.0,71,0.00,,---,0.00,VWS V14.01,2013-01-22 08:15:00,
2013-01-22 02:20:00,1.3,-6.2,30.34,NW,319,2.0,6.0,70,0.00,,---,0.00,VWS V14.01,2013-01-22 08:20:00,
2013-01-22 02:25:00,1.3,-6.2,30.34,North,350,2.0,5.0,70,0.00,,---,0.00,VWS V14.01,2013-01-22 08:25:00,
2013-01-22 02:30:00,1.2,-6.3,30.34,North,360,1.0,5.0,70,0.00,,---,0.00,VWS V14.01,2013-01-22 08:30:00,
2013-01-22 02:35:00,1.1,-6.4,30.34,WNW,293,1.0,5.0,70,0.00,,---,0.00,VWS V14.01,2013-01-22 08:35:00,
2013-01-22 02:40:00,1.0,-6.5,30.34,WNW,296,2.0,5.0,70,0.00,,---,0.00,VWS V14.01,2013-01-22 08:40:00,
2013-01-22 02:45:00,1.0,-6.5,30.34,NNW,339,2.0,5.0,70,0.00,,---,0.00,VWS V14.01,2013-01-22 08:45:00,
2013-01-22 02:50:00,0.9,-6.6,30.34,NW,311,2.0,5.0,70,0.00,,---,0.00,VWS V14.01,2013-01-22 08:50:00,
2013-01-22 02:55:00,0.9,-6.3,30.35,NW,310,0.0,2.0,71,0.00,,---,0.00,VWS V14.01,2013-01-22 08:55:00,
2013-01-22 03:00:00,0.8,-6.4,30.35,NW,315,2.0,5.0,71,0.00,,---,0.00,VWS V14.01,2013-01-22 09:00:00,
2013-01-22 03:05:00,0.7,-6.2,30.35,WSW,250,1.0,5.0,72,0.00,,---,0.00,VWS V14.01,2013-01-22 09:05:00,
2013-01-22 03:10:00,0.7,-6.2,30.35,WNW,301,1.0,2.0,72,0.00,,---,0.00,VWS V14.01,2013-01-22 09:10:00,
2013-01-22 03:15:00,0.6,-6.0,30.35,NW,322,1.0,6.0,73,0.00,,---,0.00,VWS V14.01,2013-01-22 09:15:00,
2013-01-22 03:20:00,0.6,-6.0,30.35,NW,325,1.0,6.0,73,0.00,,---,0.00,VWS V14.01,2013-01-22 09:20:00,
2013-01-22 03:25:00,0.5,-6.1,30.35,NW,319,1.0,2.0,73,0.00,,---,0.00,VWS V14.01,2013-01-22 09:25:00,
2013-01-22 03:30:00,0.5,-5.8,30.35,NW,321,0.0,3.0,74,0.00,,---,0.00,VWS V14.01,2013-01-22 09:30:00,
2013-01-22 03:35:00,0.4,-5.9,30.35,NNW,338,2.0,5.0,74,0.00,,---,0.00,VWS V14.01,2013-01-22 09:35:00,
2013-01-22 03:40:00,0.3,-6.0,30.35,NNW,339,2.0,4.0,74,0.00,,---,0.00,VWS V14.01,2013-01-22 09:40:00,
2013-01-22 03:45:00,0.2,-6.1,30.35,North,350,3.0,4.0,74,0.00,,---,0.00,VWS V14.01,2013-01-22 09:45:00,
2013-01-22 03:50:00,0.2,-6.1,30.35,NW,326,2.0,6.0,74,0.00,,---,0.00,VWS V14.01,2013-01-22 09:50:00,
2013-01-22 03:51:00,0.1,-6.2,30.35,WNW,285,0.0,4.0,74,0.00,,---,0.00,VWS V14.01,2013-01-22 09:51:00,
2013-01-22 03:55:00,0.2,-6.1,30.35,North,360,1.0,4.0,74,0.00,,---,0.00,VWS V14.01,2013-01-22 09:55:00,
2013-01-22 04:00:00,0.1,-6.2,30.35,WNW,285,0.0,4.0,74,0.00,,---,0.00,VWS V14.01,2013-01-22 10:00:00,
2013-01-22 04:05:00,0.1,-6.5,30.35,NNW,335,1.0,4.0,73,0.00,,---,0.00,VWS V14.01,2013-01-22 10:05:00,
2013-01-22 04:10:00,0.1,-6.6,30.35,North,5,3.0,3.0,73,0.00,,---,0.00,VWS V14.01,2013-01-22 10:10:00,
2013-01-22 04:15:00,-0.1,-6.7,30.35,NNW,334,2.0,5.0,73,0.00,,---,0.00,VWS V14.01,2013-01-22 10:15:00,
2013-01-22 04:20:00,-0.1,-6.7,30.35,NNW,328,2.0,5.0,73,0.00,,---,0.00,VWS V14.01,2013-01-22 10:20:00,
2013-01-22 04:25:00,-0.2,-6.8,30.35,NNW,336,0.0,3.0,73,0.00,,---,0.00,VWS V14.01,2013-01-22 10:25:00,
2013-01-22 04:30:00,-0.2,-6.8,30.36,NW,308,1.0,5.0,73,0.00,,---,0.00,VWS V14.01,2013-01-22 10:30:00,
2013-01-22 04:35:00,-0.3,-6.9,30.36,NW,315,2.0,5.0,73,0.00,,---,0.00,VWS V14.01,2013-01-22 10:35:00,
2013-01-22 04:40:00,-0.3,-6.9,30.36,NW,319,2.0,4.0,73,0.00,,---,0.00,VWS V14.01,2013-01-22 10:40:00,
2013-01-22 04:45:00,-0.4,-7.0,30.36,NW,325,2.0,6.0,73,0.00,,---,0.00,VWS V14.01,2013-01-22 10:45:00,
2013-01-22 04:50:00,-0.4,-6.7,30.36,NW,314,0.0,6.0,74,0.00,,---,0.00,VWS V14.01,2013-01-22 10:50:00,
2013-01-22 04:55:00,-0.5,-6.8,30.36,WNW,301,1.0,4.0,74,0.00,,---,0.00,VWS V14.01,2013-01-22 10:55:00,
2013-01-22 05:00:00,-0.5,-6.8,30.36,NW,321,1.0,4.0,74,0.00,,---,0.00,VWS V14.01,2013-01-22 11:00:00,
2013-01-22 05:05:00,-0.6,-6.9,30.36,NW,321,1.0,4.0,74,0.00,,---,0.00,VWS V14.01,2013-01-22 11:05:00,
2013-01-22 05:10:00,-0.6,-6.9,30.37,NW,311,0.0,3.0,74,0.00,,---,0.00,VWS V14.01,2013-01-22 11:10:00,
2013-01-22 05:15:00,-0.7,-7.0,30.37,NW,321,0.0,3.0,74,0.00,,---,0.00,VWS V14.01,2013-01-22 11:15:00,
2013-01-22 05:20:00,-0.7,-7.0,30.37,NW,310,6.0,6.0,74,0.00,,---,0.00,VWS V14.01,2013-01-22 11:20:00,
2013-01-22 05:22:00,-0.8,-7.1,30.37,NW,313,1.0,6.0,74,0.00,,---,0.00,VWS V14.01,2013-01-22 11:22:00,
2013-01-22 05:25:00,-0.7,-7.0,30.37,West,278,0.0,4.0,74,0.00,,---,0.00,VWS V14.01,2013-01-22 11:25:00,
2013-01-22 05:30:00,-0.8,-7.1,30.37,West,269,6.0,6.0,74,0.00,,---,0.00,VWS V14.01,2013-01-22 11:30:00,
2013-01-22 05:35:00,-0.8,-7.1,30.37,NNW,336,3.0,6.0,74,0.00,,---,0.00,VWS V14.01,2013-01-22 11:35:00,
2013-01-22 05:40:00,-0.9,-7.2,30.37,NW,321,1.0,4.0,74,0.00,,---,0.00,VWS V14.01,2013-01-22 11:40:00,
2013-01-22 05:45:00,-0.9,-7.2,30.38,NNW,344,0.0,4.0,74,0.00,,---,0.00,VWS V14.01,2013-01-22 11:45:00,
2013-01-22 05:50:00,-1.0,-7.3,30.38,North,351,0.0,4.0,74,0.00,,---,0.00,VWS V14.01,2013-01-22 11:50:00,
2013-01-22 05:55:00,-1.0,-7.6,30.38,West,281,1.0,2.0,73,0.00,,---,0.00,VWS V14.01,2013-01-22 11:55:00,
2013-01-22 06:00:00,-1.1,-7.7,30.38,WNW,297,0.0,2.0,73,0.00,,---,0.00,VWS V14.01,2013-01-22 12:00:00,
2013-01-22 06:05:00,-1.2,-7.7,30.38,WSW,257,0.0,4.0,73,0.00,,---,0.00,VWS V14.01,2013-01-22 12:05:00,
2013-01-22 06:10:00,-1.2,-7.7,30.38,NW,320,2.0,3.0,73,0.00,,---,0.00,VWS V14.01,2013-01-22 12:10:00,
2013-01-22 06:15:00,-1.2,-7.7,30.39,WNW,286,2.0,3.0,73,0.00,,---,0.00,VWS V14.01,2013-01-22 12:15:00,
2013-01-22 06:20:00,-1.3,-7.8,30.39,WNW,290,1.0,4.0,73,0.00,,---,0.00,VWS V14.01,2013-01-22 12:20:00,
2013-01-22 06:25:00,-1.4,-7.9,30.39,WNW,297,3.0,4.0,73,0.00,,---,0.00,VWS V14.01,2013-01-22 12:25:00,
2013-01-22 06:30:00,-1.4,-7.9,30.39,North,355,0.0,4.0,73,0.00,,---,0.00,VWS V14.01,2013-01-22 12:30:00,
2013-01-22 06:35:00,-1.4,-7.9,30.39,WNW,286,0.0,4.0,73,0.00,,---,0.00,VWS V14.01,2013-01-22 12:35:00,
2013-01-22 06:37:00,-1.5,-8.0,30.39,West,267,3.0,6.0,73,0.00,,---,0.00,VWS V14.01,2013-01-22 12:37:00,
2013-01-22 06:40:00,-1.5,-8.0,30.39,West,274,1.0,3.0,73,0.00,,---,0.00,VWS V14.01,2013-01-22 12:40:00,
2013-01-22 06:42:00,-1.5,-8.0,30.39,West,277,3.0,6.0,73,0.00,,---,0.00,VWS V14.01,2013-01-22 12:42:00,
2013-01-22 06:45:00,-1.5,-8.0,30.39,WNW,296,4.0,6.0,73,0.00,,---,0.00,VWS V14.01,2013-01-22 12:45:00,
2013-01-22 06:50:00,-1.5,-8.0,30.39,WSW,258,5.0,6.0,73,0.00,,---,0.00,VWS V14.01,2013-01-22 12:50:00,
2013-01-22 06:54:00,-1.6,-8.1,30.40,WNW,299,1.0,6.0,73,0.00,,---,0.00,VWS V14.01,2013-01-22 12:54:00,
2013-01-22 06:55:00,-1.6,-8.1,30.40,West,270,0.0,6.0,73,0.00,,---,0.00,VWS V14.01,2013-01-22 12:55:00,
2013-01-22 07:00:00,-1.6,-8.1,30.39,West,261,3.0,6.0,73,0.00,,---,0.00,VWS V14.01,2013-01-22 13:00:00,
2013-01-22 07:05:00,-1.6,-8.1,30.40,NW,304,2.0,6.0,73,0.00,,---,0.00,VWS V14.01,2013-01-22 13:05:00,
2013-01-22 07:08:00,-1.6,-8.1,30.40,NW,321,0.0,5.0,73,0.00,,---,0.00,VWS V14.01,2013-01-22 13:08:00,
2013-01-22 07:10:00,-1.6,-8.1,30.40,NW,321,0.0,2.0,73,0.00,,---,0.00,VWS V14.01,2013-01-22 13:10:00,
2013-01-22 07:15:00,-1.6,-8.1,30.40,West,269,2.0,5.0,73,0.00,,---,0.00,VWS V14.01,2013-01-22 13:15:00,
2013-01-22 07:19:00,-1.7,-8.2,30.40,WNW,287,1.0,4.0,73,0.00,,---,0.00,VWS V14.01,2013-01-22 13:19:00,
2013-01-22 07:20:00,-1.7,-8.2,30.40,WNW,284,1.0,5.0,73,0.00,,---,0.00,VWS V14.01,2013-01-22 13:20:00,
2013-01-22 07:21:00,-1.7,-8.2,30.40,NNW,336,0.0,4.0,73,0.00,,---,0.00,VWS V14.01,2013-01-22 13:21:00,
2013-01-22 07:22:00,-1.7,-8.2,30.40,NNW,327,0.0,4.0,73,0.00,,---,0.00,VWS V14.01,2013-01-22 13:22:00,
2013-01-22 07:25:00,-1.7,-8.2,30.40,West,279,3.0,4.0,73,0.00,,---,0.00,VWS V14.01,2013-01-22 13:25:00,
2013-01-22 07:30:00,-1.7,-8.2,30.40,NNW,336,0.0,4.0,73,0.00,,---,0.00,VWS V14.01,2013-01-22 13:30:00,
2013-01-22 07:35:00,-1.7,-8.2,30.40,WNW,283,2.0,4.0,73,0.00,,---,0.00,VWS V14.01,2013-01-22 13:35:00,
2013-01-22 07:37:00,-1.6,-8.1,30.41,West,260,1.0,5.0,73,0.00,,---,0.00,VWS V14.01,2013-01-22 13:37:00,
2013-01-22 07:40:00,-1.7,-8.2,30.41,West,266,1.0,5.0,73,0.00,,---,0.00,VWS V14.01,2013-01-22 13:40:00,
2013-01-22 07:45:00,-1.7,-8.2,30.41,WSW,248,2.0,5.0,73,0.00,,---,0.00,VWS V14.01,2013-01-22 13:45:00,
2013-01-22 07:47:00,-1.6,-7.8,30.41,West,269,0.0,5.0,74,0.00,,---,0.00,VWS V14.01,2013-01-22 13:47:00,
2013-01-22 07:50:00,-1.6,-8.1,30.41,West,269,6.0,6.0,73,0.00,,---,0.00,VWS V14.01,2013-01-22 13:50:00,
2013-01-22 07:52:00,-1.5,-7.8,30.41,West,267,1.0,5.0,74,0.00,,---,0.00,VWS V14.01,2013-01-22 13:52:00,
2013-01-22 07:53:00,-1.5,-7.8,30.41,West,279,3.0,5.0,74,0.00,,---,0.00,VWS V14.01,2013-01-22 13:53:00,
2013-01-22 07:55:00,-1.6,-7.8,30.41,WSW,240,2.0,5.0,74,0.00,,---,0.00,VWS V14.01,2013-01-22 13:55:00,
2013-01-22 08:00:00,-1.5,-7.8,30.41,WNW,302,3.0,5.0,74,0.00,,---,0.00,VWS V14.01,2013-01-22 14:00:00,
2013-01-22 08:05:00,-1.4,-7.4,30.41,West,267,4.0,6.0,75,0.00,,---,0.00,VWS V14.01,2013-01-22 14:05:00,
2013-01-22 08:10:00,-1.3,-7.3,30.41,West,278,5.0,8.0,75,0.00,,---,0.00,VWS V14.01,2013-01-22 14:10:00,
2013-01-22 08:12:00,-0.4,-6.1,30.42,West,265,3.0,9.0,76,0.00,,---,0.00,VWS V14.01,2013-01-22 14:12:00,
2013-01-22 08:15:00,-1.0,-6.7,30.42,West,277,6.0,9.0,76,0.00,,---,0.00,VWS V14.01,2013-01-22 14:15:00,
2013-01-22 08:20:00,-0.5,-6.2,30.42,West,261,7.0,9.0,76,0.00,,---,0.00,VWS V14.01,2013-01-22 14:20:00,
2013-01-22 08:22:00,0.1,-6.5,30.42,West,274,4.0,12.0,73,0.00,,---,0.00,VWS V14.01,2013-01-22 14:22:00,
2013-01-22 08:25:00,-0.1,-6.1,30.42,WSW,248,0.0,12.0,75,0.00,,---,0.00,VWS V14.01,2013-01-22 14:25:00,
2013-01-22 08:27:00,0.6,-5.7,30.42,West,269,4.0,12.0,74,0.00,,---,0.00,VWS V14.01,2013-01-22 14:27:00,
2013-01-22 08:30:00,-0.1,-6.6,30.42,NNW,332,3.0,12.0,73,0.00,,---,0.00,VWS V14.01,2013-01-22 14:30:00,
2013-01-22 08:35:00,0.4,-6.2,30.42,West,262,2.0,12.0,73,0.00,,---,0.00,VWS V14.01,2013-01-22 14:35:00,
2013-01-22 08:40:00,0.7,-5.9,30.42,WNW,287,2.0,7.0,73,0.00,,---,0.00,VWS V14.01,2013-01-22 14:40:00,
2013-01-22 08:45:00,0.7,-6.2,30.42,WSW,252,8.0,11.0,72,0.00,,---,0.00,VWS V14.01,2013-01-22 14:45:00,
2013-01-22 08:47:00,0.9,-6.3,30.42,WSW,250,1.0,5.0,71,0.00,,---,0.00,VWS V14.01,2013-01-22 14:47:00,
2013-01-22 08:50:00,0.8,-6.1,30.42,WSW,257,6.0,11.0,72,0.00,,---,0.00,VWS V14.01,2013-01-22 14:50:00,
2013-01-22 08:53:00,1.1,-6.4,30.42,WNW,303,2.0,7.0,70,0.00,,---,0.00,VWS V14.01,2013-01-22 14:53:00,
2013-01-22 08:55:00,0.9,-6.3,30.42,West,275,2.0,5.0,71,0.00,,---,0.00,VWS V14.01,2013-01-22 14:55:00,
2013-01-22 09:00:00,0.9,-6.3,30.42,West,280,7.0,7.0,71,0.00,,---,0.00,VWS V14.01,2013-01-22 15:00:00,
2013-01-22 09:02:00,1.3,-6.5,30.43,West,269,3.0,10.0,69,0.00,,---,0.00,VWS V14.01,2013-01-22 15:02:00,
2013-01-22 09:05:00,1.1,-6.4,30.43,West,261,7.0,10.0,70,0.00,,---,0.00,VWS V14.01,2013-01-22 15:05:00,
2013-01-22 09:10:00,1.1,-6.7,30.43,WSW,254,6.0,10.0,69,0.00,,---,0.00,VWS V14.01,2013-01-22 15:10:00,
2013-01-22 09:15:00,1.6,-6.5,30.43,NW,319,3.0,10.0,68,0.00,,---,0.00,VWS V14.01,2013-01-22 15:15:00,
2013-01-22 09:17:00,1.8,-6.6,30.43,NW,309,2.0,5.0,67,0.00,,---,0.00,VWS V14.01,2013-01-22 15:17:00,
2013-01-22 09:20:00,1.7,-6.4,30.43,NW,316,1.0,10.0,68,0.00,,---,0.00,VWS V14.01,2013-01-22 15:20:00,
2013-01-22 09:22:00,2.0,-6.4,30.43,WSW,256,7.0,10.0,67,0.00,,---,0.00,VWS V14.01,2013-01-22 15:22:00,
2013-01-22 09:25:00,1.9,-6.2,30.43,West,275,5.0,5.0,68,0.00,,---,0.00,VWS V14.01,2013-01-22 15:25:00,
2013-01-22 09:30:00,1.9,-6.5,30.43,West,274,1.0,10.0,67,0.00,,---,0.00,VWS V14.01,2013-01-22 15:30:00,
2013-01-22 09:35:00,2.0,-6.7,30.43,West,259,4.0,13.0,66,0.00,,---,0.00,VWS V14.01,2013-01-22 15:35:00,
2013-01-22 09:40:00,2.1,-6.6,30.43,West,263,3.0,7.0,66,0.00,,---,0.00,VWS V14.01,2013-01-22 15:40:00,
2013-01-22 09:42:00,2.6,-5.8,30.43,West,268,2.0,11.0,67,0.00,,---,0.00,VWS V14.01,2013-01-22 15:42:00,
2013-01-22 09:45:00,2.0,-6.7,30.43,West,274,4.0,10.0,66,0.00,,---,0.00,VWS V14.01,2013-01-22 15:45:00,
2013-01-22 09:47:00,2.7,-6.1,30.43,West,261,6.0,12.0,66,0.00,,---,0.00,VWS V14.01,2013-01-22 15:47:00,
2013-01-22 09:50:00,2.6,-5.8,30.43,WSW,243,9.0,11.0,67,0.00,,---,0.00,VWS V14.01,2013-01-22 15:50:00,
2013-01-22 09:52:00,2.8,-5.7,30.43,SW,232,6.0,12.0,67,0.00,,---,0.00,VWS V14.01,2013-01-22 15:52:00,
2013-01-22 09:55:00,2.8,-5.7,30.43,West,269,8.0,12.0,67,0.00,,---,0.00,VWS V14.01,2013-01-22 15:55:00,
2013-01-22 10:00:00,2.8,-5.7,30.43,WSW,250,6.0,12.0,67,0.00,,---,0.00,VWS V14.01,2013-01-22 16:00:00,
2013-01-22 10:05:00,2.5,-6.2,30.43,WSW,248,4.0,12.0,66,0.00,,---,0.00,VWS V14.01,2013-01-22 16:05:00,
2013-01-22 10:10:00,2.6,-5.8,30.43,WSW,252,10.0,10.0,67,0.00,,---,0.00,VWS V14.01,2013-01-22 16:10:00,
2013-01-22 10:12:00,3.5,-4.7,30.43,West,263,8.0,11.0,68,0.00,,---,0.00,VWS V14.01,2013-01-22 16:12:00,
2013-01-22 10:15:00,2.7,-5.8,30.43,NNW,333,5.0,10.0,67,0.00,,---,0.00,VWS V14.01,2013-01-22 16:15:00,
2013-01-22 10:17:00,3.1,-5.7,30.43,SW,230,9.0,9.0,66,0.00,,---,0.00,VWS V14.01,2013-01-22 16:17:00,
2013-01-22 10:18:00,3.0,-5.8,30.43,WSW,244,5.0,9.0,66,0.00,,---,0.00,VWS V14.01,2013-01-22 16:18:00,
2013-01-22 10:20:00,3.3,-4.9,30.43,West,261,3.0,10.0,68,0.00,,---,0.00,VWS V14.01,2013-01-22 16:20:00,
2013-01-22 10:25:00,3.2,-5.6,30.43,West,271,5.0,8.0,66,0.00,,---,0.00,VWS V14.01,2013-01-22 16:25:00,
2013-01-22 10:30:00,3.1,-5.4,30.43,West,281,3.0,12.0,67,0.00,,---,0.00,VWS V14.01,2013-01-22 16:30:00,
2013-01-22 10:35:00,4.1,-4.4,30.43,West,273,4.0,14.0,67,0.00,,---,0.00,VWS V14.01,2013-01-22 16:35:00,
2013-01-22 10:37:00,4.7,-4.5,30.43,WSW,254,3.0,11.0,65,0.00,,---,0.00,VWS V14.01,2013-01-22 16:37:00,
2013-01-22 10:40:00,3.8,-5.6,30.43,NW,306,6.0,11.0,64,0.00,,---,0.00,VWS V14.01,2013-01-22 16:40:00,
2013-01-22 10:45:00,4.6,-4.2,30.43,WSW,238,2.0,11.0,66,0.00,,---,0.00,VWS V14.01,2013-01-22 16:45:00,
2013-01-22 10:47:00,5.0,-3.9,30.42,North,350,6.0,6.0,66,0.00,,---,0.00,VWS V14.01,2013-01-22 16:47:00,
2013-01-22 10:50:00,4.7,-4.5,30.43,WNW,295,5.0,11.0,65,0.00,,---,0.00,VWS V14.01,2013-01-22 16:50:00,
2013-01-22 10:55:00,4.9,-4.3,30.43,WNW,299,2.0,3.0,65,0.00,,---,0.00,VWS V14.01,2013-01-22 16:55:00,
2013-01-22 10:57:00,5.3,-3.9,30.42,WNW,293,4.0,7.0,65,0.00,,---,0.00,VWS V14.01,2013-01-22 16:57:00,
2013-01-22 11:00:00,5.0,-4.2,30.42,West,276,4.0,7.0,65,0.00,,---,0.00,VWS V14.01,2013-01-22 17:00:00,
2013-01-22 11:05:00,5.4,-3.8,30.42,NW,310,4.0,7.0,65,0.00,,---,0.00,VWS V14.01,2013-01-22 17:05:00,
2013-01-22 11:07:00,5.5,-4.0,30.41,West,260,5.0,16.0,64,0.00,,---,0.00,VWS V14.01,2013-01-22 17:07:00,
2013-01-22 11:10:00,5.4,-4.1,30.42,West,272,6.0,11.0,64,0.00,,---,0.00,VWS V14.01,2013-01-22 17:10:00,
2013-01-22 11:15:00,5.1,-5.1,30.42,WSW,240,5.0,16.0,62,0.00,,---,0.00,VWS V14.01,2013-01-22 17:15:00,
2013-01-22 11:17:00,6.6,-3.6,30.41,WSW,258,7.0,11.0,62,0.00,,---,0.00,VWS V14.01,2013-01-22 17:17:00,
2013-01-22 11:20:00,5.9,-4.0,30.41,NNW,330,0.0,16.0,63,0.00,,---,0.00,VWS V14.01,2013-01-22 17:20:00,
2013-01-22 11:22:00,6.5,-4.1,30.41,NW,322,2.0,11.0,61,0.00,,---,0.00,VWS V14.01,2013-01-22 17:22:00,
2013-01-22 11:25:00,6.3,-3.9,30.41,West,260,11.0,11.0,62,0.00,,---,0.00,VWS V14.01,2013-01-22 17:25:00,
2013-01-22 11:30:00,6.4,-3.8,30.41,NNW,342,2.0,11.0,62,0.00,,---,0.00,VWS V14.01,2013-01-22 17:30:00,
2013-01-22 11:33:00,7.2,-3.8,30.41,NW,309,1.0,12.0,60,0.00,,---,0.00,VWS V14.01,2013-01-22 17:33:00,
2013-01-22 11:35:00,6.4,-4.9,30.41,West,281,1.0,11.0,59,0.00,,---,0.00,VWS V14.01,2013-01-22 17:35:00,
2013-01-22 11:40:00,7.1,-3.8,30.41,West,261,6.0,12.0,60,0.00,,---,0.00,VWS V14.01,2013-01-22 17:40:00,
2013-01-22 11:45:00,7.4,-3.6,30.41,West,277,14.0,14.0,60,0.00,,---,0.00,VWS V14.01,2013-01-22 17:45:00,
2013-01-22 11:50:00,6.9,-4.7,30.41,WNW,286,0.0,14.0,58,0.00,,---,0.00,VWS V14.01,2013-01-22 17:50:00,
2013-01-22 11:55:00,7.4,-4.3,30.41,SW,222,6.0,11.0,58,0.00,,---,0.00,VWS V14.01,2013-01-22 17:55:00,
2013-01-22 11:57:00,8.3,-3.8,30.41,WSW,251,5.0,14.0,57,0.00,,---,0.00,VWS V14.01,2013-01-22 17:57:00,
2013-01-22 12:00:00,7.9,-3.4,30.41,SSW,208,3.0,11.0,59,0.00,,---,0.00,VWS V14.01,2013-01-22 18:00:00,
2013-01-22 12:02:00,8.1,-4.0,30.41,WSW,257,8.0,13.0,57,0.00,,---,0.00,VWS V14.01,2013-01-22 18:02:00,
2013-01-22 12:05:00,7.9,-4.2,30.41,SW,229,4.0,14.0,57,0.00,,---,0.00,VWS V14.01,2013-01-22 18:05:00,
2013-01-22 12:07:00,7.9,-4.5,30.41,West,279,10.0,16.0,56,0.00,,---,0.00,VWS V14.01,2013-01-22 18:07:00,
2013-01-22 12:10:00,7.9,-4.5,30.41,West,270,4.0,8.0,56,0.00,,---,0.00,VWS V14.01,2013-01-22 18:10:00,
2013-01-22 12:12:00,8.2,-4.2,30.40,West,265,5.0,16.0,56,0.00,,---,0.00,VWS V14.01,2013-01-22 18:12:00,
2013-01-22 12:15:00,7.9,-4.5,30.41,NW,311,6.0,16.0,56,0.00,,---,0.00,VWS V14.01,2013-01-22 18:15:00,
2013-01-22 12:17:00,8.9,-4.0,30.40,West,277,5.0,10.0,55,0.00,,---,0.00,VWS V14.01,2013-01-22 18:17:00,
2013-01-22 12:20:00,8.1,-4.3,30.41,SSW,213,5.0,16.0,56,0.00,,---,0.00,VWS V14.01,2013-01-22 18:20:00,
2013-01-22 12:25:00,8.9,-3.6,30.40,SW,226,8.0,8.0,56,0.00,,---,0.00,VWS V14.01,2013-01-22 18:25:00,
2013-01-22 12:30:00,8.6,-4.6,30.40,WSW,240,6.0,11.0,54,0.00,,---,0.00,VWS V14.01,2013-01-22 18:30:00,
2013-01-22 12:35:00,8.3,-4.9,30.39,WNW,300,5.0,12.0,54,0.00,,---,0.00,VWS V14.01,2013-01-22 18:35:00,
2013-01-22 12:40:00,9.2,-3.7,30.39,WNW,296,4.0,6.0,55,0.00,,---,0.00,VWS V14.01,2013-01-22 18:40:00,
2013-01-22 12:45:00,8.8,-4.4,30.39,WSW,240,14.0,14.0,54,0.00,,---,0.00,VWS V14.01,2013-01-22 18:45:00,
2013-01-22 12:50:00,9.1,-4.2,30.39,NW,306,3.0,14.0,54,0.00,,---,0.00,VWS V14.01,2013-01-22 18:50:00,
2013-01-22 12:52:00,9.1,-4.2,30.39,WSW,256,6.0,15.0,54,0.00,,---,0.00,VWS V14.01,2013-01-22 18:52:00,
2013-01-22 12:55:00,8.9,-4.3,30.39,West,266,6.0,6.0,54,0.00,,---,0.00,VWS V14.01,2013-01-22 18:55:00,
2013-01-22 12:57:00,9.3,-4.0,30.38,West,259,10.0,15.0,54,0.00,,---,0.00,VWS V14.01,2013-01-22 18:57:00,
2013-01-22 13:00:00,8.9,-4.3,30.38,WNW,301,4.0,15.0,54,0.00,,---,0.00,VWS V14.01,2013-01-22 19:00:00,
2013-01-22 13:05:00,9.3,-4.0,30.38,WNW,284,5.0,15.0,54,0.00,,---,0.00,VWS V14.01,2013-01-22 19:05:00,
2013-01-22 13:07:00,9.8,-3.5,30.38,WNW,300,3.0,11.0,54,0.00,,---,0.00,VWS V14.01,2013-01-22 19:07:00,
2013-01-22 13:10:00,9.5,-3.8,30.38,West,273,8.0,11.0,54,0.00,,---,0.00,VWS V14.01,2013-01-22 19:10:00,
2013-01-22 13:15:00,9.8,-3.5,30.38,WSW,248,7.0,11.0,54,0.00,,---,0.00,VWS V14.01,2013-01-22 19:15:00,
2013-01-22 13:20:00,9.8,-3.5,30.38,NNW,346,1.0,11.0,54,0.00,,---,0.00,VWS V14.01,2013-01-22 19:20:00,
2013-01-22 13:25:00,9.8,-3.5,30.38,WNW,284,6.0,8.0,54,0.00,,---,0.00,VWS V14.01,2013-01-22 19:25:00,
2013-01-22 13:30:00,9.9,-3.4,30.38,NW,305,4.0,12.0,54,0.00,,---,0.00,VWS V14.01,2013-01-22 19:30:00,
2013-01-22 13:32:00,10.1,-3.2,30.38,WSW,243,7.0,9.0,54,0.00,,---,0.00,VWS V14.01,2013-01-22 19:32:00,
2013-01-22 13:35:00,9.8,-3.1,30.38,West,261,9.0,14.0,55,0.00,,---,0.00,VWS V14.01,2013-01-22 19:35:00,
2013-01-22 13:40:00,10.0,-2.9,30.38,WNW,290,8.0,9.0,55,0.00,,---,0.00,VWS V14.01,2013-01-22 19:40:00,
2013-01-22 13:42:00,10.2,-3.5,30.38,WNW,294,3.0,12.0,53,0.00,,---,0.00,VWS V14.01,2013-01-22 19:42:00,
2013-01-22 13:45:00,9.9,-3.8,30.38,West,273,4.0,12.0,53,0.00,,---,0.00,VWS V14.01,2013-01-22 19:45:00,
2013-01-22 13:50:00,10.2,-3.1,30.38,NW,319,3.0,12.0,54,0.00,,---,0.00,VWS V14.01,2013-01-22 19:50:00,
2013-01-22 13:55:00,10.5,-2.8,30.38,WSW,250,6.0,11.0,54,0.00,,---,0.00,VWS V14.01,2013-01-22 19:55:00,
2013-01-22 14:00:00,10.4,-3.3,30.38,NW,313,5.0,11.0,53,0.00,,---,0.00,VWS V14.01,2013-01-22 20:00:00,
2013-01-22 14:02:00,10.7,-2.7,30.38,WSW,242,4.0,8.0,54,0.00,,---,0.00,VWS V14.01,2013-01-22 20:02:00,
2013-01-22 14:05:00,10.3,-3.0,30.38,West,268,12.0,12.0,54,0.00,,---,0.00,VWS V14.01,2013-01-22 20:05:00,
2013-01-22 14:10:00,10.6,-2.8,30.38,NW,310,0.0,8.0,54,0.00,,---,0.00,VWS V14.01,2013-01-22 20:10:00,
2013-01-22 14:15:00,10.9,-2.5,30.38,West,263,11.0,11.0,54,0.00,,---,0.00,VWS V14.01,2013-01-22 20:15:00,
2013-01-22 14:17:00,11.3,-2.5,30.38,NW,312,7.0,9.0,53,0.00,,---,0.00,VWS V14.01,2013-01-22 20:17:00,
2013-01-22 14:20:00,10.7,-3.0,30.38,West,269,12.0,15.0,53,0.00,,---,0.00,VWS V14.01,2013-01-22 20:20:00,
2013-01-22 14:23:00,11.5,-1.9,30.38,NW,312,1.0,16.0,54,0.00,,---,0.00,VWS V14.01,2013-01-22 20:23:00,
2013-01-22 14:25:00,11.2,-2.2,30.38,NW,316,7.0,8.0,54,0.00,,---,0.00,VWS V14.01,2013-01-22 20:25:00,
2013-01-22 14:30:00,11.4,-2.4,30.38,WSW,253,2.0,16.0,53,0.00,,---,0.00,VWS V14.01,2013-01-22 20:30:00,
2013-01-22 14:32:00,11.1,-2.7,30.38,West,265,15.0,15.0,53,0.00,,---,0.00,VWS V14.01,2013-01-22 20:32:00,
2013-01-22 14:35:00,11.5,-2.3,30.38,WSW,256,11.0,16.0,53,0.00,,---,0.00,VWS V14.01,2013-01-22 20:35:00,
2013-01-22 14:40:00,11.2,-2.6,30.38,WNW,284,5.0,5.0,53,0.00,,---,0.00,VWS V14.01,2013-01-22 20:40:00,
2013-01-22 14:42:00,10.8,-3.0,30.38,West,269,5.0,15.0,53,0.00,,---,0.00,VWS V14.01,2013-01-22 20:42:00,
2013-01-22 14:45:00,10.9,-2.9,30.38,West,259,6.0,15.0,53,0.00,,---,0.00,VWS V14.01,2013-01-22 20:45:00,
2013-01-22 14:50:00,10.8,-3.0,30.38,West,264,7.0,15.0,53,0.00,,---,0.00,VWS V14.01,2013-01-22 20:50:00,
2013-01-22 14:55:00,11.0,-2.4,30.38,West,277,6.0,11.0,54,0.00,,---,0.00,VWS V14.01,2013-01-22 20:55:00,
2013-01-22 15:00:00,11.0,-2.4,30.38,WSW,258,5.0,13.0,54,0.00,,---,0.00,VWS V14.01,2013-01-22 21:00:00,
2013-01-22 15:02:00,10.7,-2.7,30.38,WNW,286,4.0,11.0,54,0.00,,---,0.00,VWS V14.01,2013-01-22 21:02:00,
2013-01-22 15:05:00,10.8,-2.6,30.38,WNW,286,5.0,14.0,54,0.00,,---,0.00,VWS V14.01,2013-01-22 21:05:00,
2013-01-22 15:07:00,10.7,-2.7,30.38,WNW,287,4.0,11.0,54,0.00,,---,0.00,VWS V14.01,2013-01-22 21:07:00,
2013-01-22 15:10:00,10.7,-2.7,30.38,WSW,254,5.0,11.0,54,0.00,,---,0.00,VWS V14.01,2013-01-22 21:10:00,
2013-01-22 15:12:00,10.6,-2.4,30.38,NW,317,3.0,11.0,55,0.00,,---,0.00,VWS V14.01,2013-01-22 21:12:00,
2013-01-22 15:15:00,10.7,-2.7,30.38,NNW,331,3.0,11.0,54,0.00,,---,0.00,VWS V14.01,2013-01-22 21:15:00,
2013-01-22 15:17:00,10.5,-2.5,30.38,WSW,251,7.0,13.0,55,0.00,,---,0.00,VWS V14.01,2013-01-22 21:17:00,
2013-01-22 15:20:00,10.6,-2.4,30.38,NW,306,4.0,11.0,55,0.00,,---,0.00,VWS V14.01,2013-01-22 21:20:00,
2013-01-22 15:24:00,10.6,-2.4,30.38,West,266,6.0,9.0,55,0.00,,---,0.00,VWS V14.01,2013-01-22 21:24:00,
2013-01-22 15:29:00,10.5,-2.5,30.38,West,259,13.0,13.0,55,0.00,,---,0.00,VWS V14.01,2013-01-22 21:29:00,
2013-01-22 15:31:00,10.4,-2.9,30.38,West,260,3.0,13.0,54,0.00,,---,0.00,VWS V14.01,2013-01-22 21:31:00,
2013-01-22 15:36:00,10.4,-2.6,30.38,West,259,9.0,13.0,55,0.00,,---,0.00,VWS V14.01,2013-01-22 21:36:00,
2013-01-22 15:37:00,10.4,-2.6,30.37,WNW,291,6.0,9.0,55,0.00,,---,0.00,VWS V14.01,2013-01-22 21:37:00,
2013-01-22 15:41:00,10.5,-2.5,30.38,West,261,6.0,8.0,55,0.00,,---,0.00,VWS V14.01,2013-01-22 21:41:00,
2013-01-22 15:46:00,10.4,-2.6,30.37,WNW,284,1.0,9.0,55,0.00,,---,0.00,VWS V14.01,2013-01-22 21:46:00,
2013-01-22 15:51:00,10.3,-2.7,30.37,WNW,292,9.0,11.0,55,0.00,,---,0.00,VWS V14.01,2013-01-22 21:51:00,
2013-01-22 15:53:00,10.2,-2.7,30.37,West,262,9.0,14.0,55,0.00,,---,0.00,VWS V14.01,2013-01-22 21:53:00,
2013-01-22 15:56:00,10.2,-2.4,30.37,WSW,248,12.0,14.0,56,0.00,,---,0.00,VWS V14.01,2013-01-22 21:56:00,
2013-01-22 15:57:00,10.1,-2.8,30.37,NW,320,3.0,14.0,55,0.00,,---,0.00,VWS V14.01,2013-01-22 21:57:00,
2013-01-22 16:01:00,10.2,-2.7,30.37,WSW,253,7.0,14.0,55,0.00,,---,0.00,VWS V14.01,2013-01-22 22:01:00,
2013-01-22 16:07:00,10.1,-2.5,30.37,West,277,3.0,14.0,56,0.00,,---,0.00,VWS V14.01,2013-01-22 22:07:00,
2013-01-22 16:12:00,10.1,-2.5,30.37,WNW,297,2.0,7.0,56,0.00,,---,0.00,VWS V14.01,2013-01-22 22:12:00,
2013-01-22 16:17:00,10.0,-2.5,30.38,West,276,3.0,11.0,56,0.00,,---,0.00,VWS V14.01,2013-01-22 22:17:00,
2013-01-22 16:22:00,10.0,-2.5,30.38,West,281,10.0,11.0,56,0.00,,---,0.00,VWS V14.01,2013-01-22 22:22:00,
2013-01-22 16:27:00,9.9,-2.7,30.38,West,269,2.0,7.0,56,0.00,,---,0.00,VWS V14.01,2013-01-22 22:27:00,
2013-01-22 16:32:00,9.8,-2.4,30.38,West,279,2.0,11.0,57,0.00,,---,0.00,VWS V14.01,2013-01-22 22:32:00,
2013-01-22 16:37:00,9.6,-2.6,30.38,NW,311,4.0,11.0,57,0.00,,---,0.00,VWS V14.01,2013-01-22 22:37:00,
2013-01-22 16:42:00,9.5,-2.3,30.38,NW,321,1.0,5.0,58,0.00,,---,0.00,VWS V14.01,2013-01-22 22:42:00,
2013-01-22 16:47:00,9.5,-2.3,30.38,WSW,242,11.0,11.0,58,0.00,,---,0.00,VWS V14.01,2013-01-22 22:47:00,
2013-01-22 16:52:00,9.4,-2.4,30.38,WNW,287,2.0,11.0,58,0.00,,---,0.00,VWS V14.01,2013-01-22 22:52:00,
2013-01-22 16:57:00,9.4,-2.0,30.38,WNW,290,2.0,8.0,59,0.00,,---,0.00,VWS V14.01,2013-01-22 22:57:00,
2013-01-22 17:02:00,9.4,-2.0,30.37,NW,321,4.0,11.0,59,0.00,,---,0.00,VWS V14.01,2013-01-22 23:02:00,
2013-01-22 17:07:00,9.3,-2.1,30.37,NW,317,5.0,11.0,59,0.00,,---,0.00,VWS V14.01,2013-01-22 23:07:00,
2013-01-22 17:12:00,9.2,-2.2,30.37,West,267,1.0,6.0,59,0.00,,---,0.00,VWS V14.01,2013-01-22 23:12:00,
2013-01-22 17:14:00,9.0,-2.4,30.37,West,269,6.0,9.0,59,0.00,,---,0.00,VWS V14.01,2013-01-22 23:14:00,
2013-01-22 17:15:00,9.0,-2.4,30.37,West,279,2.0,3.0,59,0.00,,---,0.00,VWS V14.01,2013-01-22 23:15:00,
2013-01-22 17:17:00,9.1,-2.3,30.38,NW,305,2.0,9.0,59,0.00,,---,0.00,VWS V14.01,2013-01-22 23:17:00,
2013-01-22 17:22:00,9.1,-2.3,30.37,West,273,3.0,9.0,59,0.00,,---,0.00,VWS V14.01,2013-01-22 23:22:00,
2013-01-22 17:27:00,9.0,-2.4,30.38,WNW,300,4.0,6.0,59,0.00,,---,0.00,VWS V14.01,2013-01-22 23:27:00,
2013-01-22 17:32:00,9.0,-2.0,30.38,WNW,294,1.0,7.0,60,0.00,,---,0.00,VWS V14.01,2013-01-22 23:32:00,
2013-01-22 17:37:00,9.0,-2.0,30.38,West,281,5.0,9.0,60,0.00,,---,0.00,VWS V14.01,2013-01-22 23:37:00,
2013-01-22 17:42:00,9.0,-2.0,30.38,WSW,256,7.0,8.0,60,0.00,,---,0.00,VWS V14.01,2013-01-22 23:42:00,
2013-01-22 17:47:00,9.1,-2.0,30.38,WSW,257,3.0,8.0,60,0.00,,---,0.00,VWS V14.01,2013-01-22 23:47:00,
2013-01-22 17:52:00,9.2,-2.2,30.37,WSW,257,9.0,9.0,59,0.00,,---,0.00,VWS V14.01,2013-01-22 23:52:00,
2013-01-22 17:57:00,9.2,-2.2,30.38,West,271,2.0,6.0,59,0.00,,---,0.00,VWS V14.01,2013-01-22 23:57:00,
2013-01-22 18:02:00,9.3,-1.8,30.38,NW,312,0.0,6.0,60,0.00,,---,0.00,VWS V14.01,2013-01-23 00:02:00,
2013-01-22 18:07:00,9.3,-1.8,30.37,WNW,290,1.0,6.0,60,0.00,,---,0.00,VWS V14.01,2013-01-23 00:07:00,
2013-01-22 18:12:00,9.4,-1.7,30.37,West,281,5.0,5.0,60,0.00,,---,0.00,VWS V14.01,2013-01-23 00:12:00,
2013-01-22 18:17:00,9.4,-1.7,30.37,WNW,303,1.0,7.0,60,0.00,,---,0.00,VWS V14.01,2013-01-23 00:17:00,
2013-01-22 18:22:00,9.5,-1.9,30.37,WNW,285,5.0,7.0,59,0.00,,---,0.00,VWS V14.01,2013-01-23 00:22:00,
2013-01-22 18:27:00,9.6,-1.8,30.38,West,279,1.0,7.0,59,0.00,,---,0.00,VWS V14.01,2013-01-23 00:27:00,
2013-01-22 18:32:00,9.7,-1.4,30.38,NW,305,3.0,8.0,60,0.00,,---,0.00,VWS V14.01,2013-01-23 00:32:00,
2013-01-22 18:37:00,9.7,-1.7,30.37,WNW,302,3.0,8.0,59,0.00,,---,0.00,VWS V14.01,2013-01-23 00:37:00,
2013-01-22 18:42:00,9.7,-1.7,30.37,WNW,294,2.0,6.0,59,0.00,,---,0.00,VWS V14.01,2013-01-23 00:42:00,
2013-01-22 18:47:00,9.8,-1.3,30.37,WNW,292,3.0,7.0,60,0.00,,---,0.00,VWS V14.01,2013-01-23 00:47:00,
2013-01-22 18:52:00,9.8,-1.6,30.37,West,272,1.0,7.0,59,0.00,,---,0.00,VWS V14.01,2013-01-23 00:52:00,
2013-01-22 18:53:00,9.8,-1.3,30.36,West,279,3.0,10.0,60,0.00,,---,0.00,VWS V14.01,2013-01-23 00:53:00,
2013-01-22 18:57:00,9.8,-1.3,30.37,NW,314,2.0,5.0,60,0.00,,---,0.00,VWS V14.01,2013-01-23 00:57:00,
2013-01-22 19:02:00,9.8,-1.3,30.36,West,265,5.0,10.0,60,0.00,,---,0.00,VWS V14.01,2013-01-23 01:02:00,
2013-01-22 19:07:00,9.9,-1.2,30.37,WNW,292,1.0,10.0,60,0.00,,---,0.00,VWS V14.01,2013-01-23 01:07:00,
2013-01-22 19:12:00,9.9,-1.5,30.37,WNW,294,3.0,3.0,59,0.00,,---,0.00,VWS V14.01,2013-01-23 01:12:00,
2013-01-22 19:17:00,9.9,-1.2,30.37,NNW,339,1.0,5.0,60,0.00,,---,0.00,VWS V14.01,2013-01-23 01:17:00,
2013-01-22 19:22:00,10.0,-1.5,30.37,NW,306,4.0,5.0,59,0.00,,---,0.00,VWS V14.01,2013-01-23 01:22:00,
2013-01-22 19:27:00,10.0,-1.5,30.37,NW,309,0.0,7.0,59,0.00,,---,0.00,VWS V14.01,2013-01-23 01:27:00,
2013-01-22 19:32:00,10.0,-1.1,30.37,NW,319,3.0,7.0,60,0.00,,---,0.00,VWS V14.01,2013-01-23 01:32:00,
2013-01-22 19:37:00,10.0,-1.5,30.37,NW,322,2.0,7.0,59,0.00,,---,0.00,VWS V14.01,2013-01-23 01:37:00,
2013-01-22 19:38:00,9.9,-1.5,30.37,NW,320,1.0,5.0,59,0.00,,---,0.00,VWS V14.01,2013-01-23 01:38:00,
2013-01-22 19:42:00,10.0,-1.1,30.37,NW,326,3.0,4.0,60,0.00,,---,0.00,VWS V14.01,2013-01-23 01:42:00,
2013-01-22 19:47:00,9.9,-1.5,30.37,NW,320,0.0,5.0,59,0.00,,---,0.00,VWS V14.01,2013-01-23 01:47:00,
2013-01-22 19:52:00,9.9,-1.2,30.37,NNW,328,2.0,5.0,60,0.00,,---,0.00,VWS V14.01,2013-01-23 01:52:00,
2013-01-22 19:53:00,9.9,-1.2,30.37,WNW,299,0.0,6.0,60,0.00,,---,0.00,VWS V14.01,2013-01-23 01:53:00,
2013-01-22 19:57:00,9.9,-1.2,30.37,NNW,343,2.0,6.0,60,0.00,,---,0.00,VWS V14.01,2013-01-23 01:57:00,
2013-01-22 20:03:00,9.9,-1.2,30.37,WNW,299,0.0,6.0,60,0.00,,---,0.00,VWS V14.01,2013-01-23 02:03:00,
2013-01-22 20:07:00,9.9,-1.5,30.37,North,355,3.0,5.0,59,0.00,,---,0.00,VWS V14.01,2013-01-23 02:07:00,
2013-01-22 20:08:00,10.0,-1.1,30.37,WSW,252,7.0,9.0,60,0.00,,---,0.00,VWS V14.01,2013-01-23 02:08:00,
2013-01-22 20:12:00,9.9,-1.5,30.37,NNW,328,7.0,7.0,59,0.00,,---,0.00,VWS V14.01,2013-01-23 02:12:00,
2013-01-22 20:13:00,9.9,-1.2,30.37,NNW,336,0.0,3.0,60,0.00,,---,0.00,VWS V14.01,2013-01-23 02:13:00,
2013-01-22 20:17:00,9.9,-1.5,30.37,NW,322,3.0,6.0,59,0.00,,---,0.00,VWS V14.01,2013-01-23 02:17:00,
2013-01-22 20:18:00,9.9,-1.5,30.37,NNW,338,1.0,6.0,59,0.00,,---,0.00,VWS V14.01,2013-01-23 02:18:00,
2013-01-22 20:22:00,9.9,-1.5,30.38,WNW,287,1.0,8.0,59,0.00,,---,0.00,VWS V14.01,2013-01-23 02:22:00,
2013-01-22 20:23:00,9.9,-1.5,30.37,West,279,1.0,7.0,59,0.00,,---,0.00,VWS V14.01,2013-01-23 02:23:00,
2013-01-22 20:28:00,9.9,-1.5,30.38,NW,323,2.0,8.0,59,0.00,,---,0.00,VWS V14.01,2013-01-23 02:28:00,
2013-01-22 20:33:00,9.9,-1.5,30.38,West,267,6.0,8.0,59,0.00,,---,0.00,VWS V14.01,2013-01-23 02:33:00,
2013-01-22 20:38:00,9.9,-1.9,30.38,WNW,287,3.0,8.0,58,0.00,,---,0.00,VWS V14.01,2013-01-23 02:38:00,
2013-01-22 20:43:00,9.9,-1.5,30.38,NNW,339,2.0,7.0,59,0.00,,---,0.00,VWS V14.01,2013-01-23 02:43:00,
2013-01-22 20:48:00,9.9,-1.5,30.38,NNW,341,2.0,7.0,59,0.00,,---,0.00,VWS V14.01,2013-01-23 02:48:00,
2013-01-22 20:53:00,9.9,-1.5,30.38,West,281,3.0,7.0,59,0.00,,---,0.00,VWS V14.01,2013-01-23 02:53:00,
2013-01-22 20:58:00,9.9,-1.5,30.38,NW,304,2.0,8.0,59,0.00,,---,0.00,VWS V14.01,2013-01-23 02:58:00,
2013-01-22 21:02:00,9.9,-1.9,30.37,West,280,1.0,6.0,58,0.00,,---,0.00,VWS V14.01,2013-01-23 03:02:00,
2013-01-22 21:03:00,9.9,-1.9,30.38,NNW,327,4.0,8.0,58,0.00,,---,0.00,VWS V14.01,2013-01-23 03:03:00,
2013-01-22 21:07:00,9.9,-1.9,30.37,West,272,2.0,6.0,58,0.00,,---,0.00,VWS V14.01,2013-01-23 03:07:00,
2013-01-22 21:08:00,9.9,-1.5,30.38,West,275,3.0,8.0,59,0.00,,---,0.00,VWS V14.01,2013-01-23 03:08:00,
2013-01-22 21:13:00,9.9,-1.9,30.37,NNW,338,2.0,6.0,58,0.00,,---,0.00,VWS V14.01,2013-01-23 03:13:00,
2013-01-22 21:18:00,9.9,-1.5,30.38,West,268,6.0,6.0,59,0.00,,---,0.00,VWS V14.01,2013-01-23 03:18:00,
2013-01-22 21:22:00,10.0,-1.5,30.38,WNW,296,1.0,6.0,59,0.00,,---,0.00,VWS V14.01,2013-01-23 03:22:00,
2013-01-22 21:23:00,9.9,-1.9,30.38,NNW,330,5.0,7.0,58,0.00,,---,0.00,VWS V14.01,2013-01-23 03:23:00,
2013-01-22 21:27:00,10.0,-1.5,30.38,WNW,293,2.0,6.0,59,0.00,,---,0.00,VWS V14.01,2013-01-23 03:27:00,
2013-01-22 21:28:00,9.9,-1.9,30.38,West,280,2.0,6.0,58,0.00,,---,0.00,VWS V14.01,2013-01-23 03:28:00,
2013-01-22 21:33:00,10.0,-1.8,30.38,West,275,1.0,6.0,58,0.00,,---,0.00,VWS V14.01,2013-01-23 03:33:00,
2013-01-22 21:38:00,10.0,-1.8,30.38,NW,319,2.0,6.0,58,0.00,,---,0.00,VWS V14.01,2013-01-23 03:38:00,
2013-01-22 21:43:00,10.0,-1.8,30.38,West,281,2.0,4.0,58,0.00,,---,0.00,VWS V14.01,2013-01-23 03:43:00,
2013-01-22 21:48:00,10.0,-1.5,30.38,WNW,285,0.0,4.0,59,0.00,,---,0.00,VWS V14.01,2013-01-23 03:48:00,
2013-01-22 21:53:00,10.0,-1.8,30.38,North,5,3.0,7.0,58,0.00,,---,0.00,VWS V14.01,2013-01-23 03:53:00,
2013-01-22 21:58:00,10.0,-1.8,30.38,WNW,288,1.0,4.0,58,0.00,,---,0.00,VWS V14.01,2013-01-23 03:58:00,
2013-01-22 22:02:00,10.0,-1.5,30.38,West,280,5.0,5.0,59,0.00,,---,0.00,VWS V14.01,2013-01-23 04:02:00,
2013-01-22 22:03:00,10.0,-1.8,30.38,WNW,290,2.0,6.0,58,0.00,,---,0.00,VWS V14.01,2013-01-23 04:03:00,
2013-01-22 22:08:00,10.0,-1.5,30.38,WNW,294,1.0,6.0,59,0.00,,---,0.00,VWS V14.01,2013-01-23 04:08:00,
2013-01-22 22:12:00,10.0,-1.5,30.38,NW,324,2.0,5.0,59,0.00,,---,0.00,VWS V14.01,2013-01-23 04:12:00,
2013-01-22 22:13:00,10.0,-1.8,30.37,WNW,302,0.0,5.0,58,0.00,,---,0.00,VWS V14.01,2013-01-23 04:13:00,
2013-01-22 22:17:00,9.9,-1.5,30.38,WNW,296,2.0,4.0,59,0.00,,---,0.00,VWS V14.01,2013-01-23 04:17:00,
2013-01-22 22:18:00,10.0,-1.5,30.38,NNW,333,0.0,5.0,59,0.00,,---,0.00,VWS V14.01,2013-01-23 04:18:00,
2013-01-22 22:23:00,10.0,-1.5,30.38,NW,323,2.0,5.0,59,0.00,,---,0.00,VWS V14.01,2013-01-23 04:23:00,
2013-01-22 22:27:00,9.9,-1.5,30.38,NW,309,0.0,5.0,59,0.00,,---,0.00,VWS V14.01,2013-01-23 04:27:00,
2013-01-22 22:28:00,10.0,-1.5,30.38,NW,320,3.0,5.0,59,0.00,,---,0.00,VWS V14.01,2013-01-23 04:28:00,
2013-01-22 22:32:00,9.9,-1.2,30.38,NNW,343,3.0,3.0,60,0.00,,---,0.00,VWS V14.01,2013-01-23 04:32:00,
2013-01-22 22:33:00,9.9,-1.5,30.38,NNW,344,1.0,5.0,59,0.00,,---,0.00,VWS V14.01,2013-01-23 04:33:00,
2013-01-22 22:38:00,9.9,-1.5,30.38,NW,309,0.0,5.0,59,0.00,,---,0.00,VWS V14.01,2013-01-23 04:38:00,
2013-01-22 22:42:00,9.9,-1.2,30.38,NW,322,0.0,4.0,60,0.00,,---,0.00,VWS V14.01,2013-01-23 04:42:00,
2013-01-22 22:43:00,9.9,-1.2,30.38,NNW,330,2.0,4.0,60,0.00,,---,0.00,VWS V14.01,2013-01-23 04:43:00,
2013-01-22 22:48:00,9.9,-1.2,30.38,NW,313,1.0,4.0,60,0.00,,---,0.00,VWS V14.01,2013-01-23 04:48:00,
2013-01-22 22:52:00,9.9,-0.9,30.39,North,360,1.0,4.0,61,0.00,,---,0.00,VWS V14.01,2013-01-23 04:52:00,
2013-01-22 22:53:00,9.9,-1.2,30.38,NW,322,1.0,4.0,60,0.00,,---,0.00,VWS V14.01,2013-01-23 04:53:00,
2013-01-22 22:58:00,9.8,-0.9,30.38,NW,323,0.0,2.0,61,0.00,,---,0.00,VWS V14.01,2013-01-23 04:58:00,
2013-01-22 23:00:00,9.9,-0.9,30.38,NW,322,0.0,2.0,61,0.00,,---,0.00,VWS V14.01,2013-01-23 05:00:00,
2013-01-22 23:01:00,9.9,-0.9,30.39,NW,307,3.0,3.0,61,0.00,,---,0.00,VWS V14.01,2013-01-23 05:01:00,
2013-01-22 23:03:00,9.9,-0.9,30.39,NNW,341,0.0,4.0,61,0.00,,---,0.00,VWS V14.01,2013-01-23 05:03:00,
2013-01-22 23:08:00,9.9,-0.9,30.39,NNW,341,2.0,4.0,61,0.00,,---,0.00,VWS V14.01,2013-01-23 05:08:00,
2013-01-22 23:12:00,9.9,-0.9,30.39,NNW,329,0.0,3.0,61,0.00,,---,0.00,VWS V14.01,2013-01-23 05:12:00,
2013-01-22 23:13:00,9.9,-0.9,30.39,NNW,336,3.0,3.0,61,0.00,,---,0.00,VWS V14.01,2013-01-23 05:13:00,
2013-01-22 23:17:00,9.9,-0.9,30.39,NW,314,2.0,4.0,61,0.00,,---,0.00,VWS V14.01,2013-01-23 05:17:00,
2013-01-22 23:18:00,9.8,-0.9,30.39,WNW,300,1.0,3.0,61,0.00,,---,0.00,VWS V14.01,2013-01-23 05:18:00,
2013-01-22 23:23:00,9.9,-0.9,30.39,WNW,288,1.0,3.0,61,0.00,,---,0.00,VWS V14.01,2013-01-23 05:23:00,
2013-01-22 23:27:00,9.9,-1.2,30.39,WNW,287,0.0,5.0,60,0.00,,---,0.00,VWS V14.01,2013-01-23 05:27:00,
2013-01-22 23:28:00,9.9,-0.9,30.39,NW,314,0.0,4.0,61,0.00,,---,0.00,VWS V14.01,2013-01-23 05:28:00,
2013-01-22 23:33:00,9.9,-0.9,30.39,NW,317,2.0,5.0,61,0.00,,---,0.00,VWS V14.01,2013-01-23 05:33:00,
2013-01-22 23:37:00,9.9,-1.2,30.39,NNW,327,3.0,5.0,60,0.00,,---,0.00,VWS V14.01,2013-01-23 05:37:00,
2013-01-22 23:38:00,9.9,-1.2,30.39,NW,312,1.0,5.0,60,0.00,,---,0.00,VWS V14.01,2013-01-23 05:38:00,
2013-01-22 23:43:00,9.9,-1.2,30.39,NW,317,1.0,4.0,60,0.00,,---,0.00,VWS V14.01,2013-01-23 05:43:00,
2013-01-22 23:48:00,9.9,-1.2,30.39,WNW,292,3.0,5.0,60,0.00,,---,0.00,VWS V14.01,2013-01-23 05:48:00,
2013-01-22 23:52:00,9.9,-1.2,30.38,WNW,288,1.0,6.0,60,0.00,,---,0.00,VWS V14.01,2013-01-23 05:52:00,
2013-01-22 23:53:00,9.9,-1.2,30.39,NW,304,1.0,7.0,60,0.00,,---,0.00,VWS V14.01,2013-01-23 05:53:00,
2013-01-22 23:58:00,9.9,-1.2,30.39,West,266,5.0,6.0,60,0.00,,---,0.00,VWS V14.01,2013-01-23 05:58:00,